Simultaneous Nadir Overpasses (SNOs) Predictions

Prediction of SNOs over PacNW region [( 10.00, 139.50) to ( 22.70, 165.60)] between AQUA and NPP Satellites:

Table of predicted SNOs over PacNW region for the next 30.0 days since TLE Epoch: 2/2/2018
Index Date (AQUA) Time (AQUA) AQUA Lat,Lon Date (NPP) Time (NPP) NPP Lat,Lon Distance(km) Time Diff (sec)
1 02/04/2018 15:10:18 22.60, 159.85 02/04/2018 15:10:55 23.16, 157.24 274.94 37
2 02/12/2018 15:59:48 22.63, 147.50 02/12/2018 16:01:32 23.25, 144.60 305.22 104
3 02/20/2018 15:10:25 22.61, 159.86 02/20/2018 15:10:42 23.16, 157.29 270.86 17
4 02/28/2018 15:59:55 22.60, 147.51 02/28/2018 16:01:20 23.22, 144.64 301.71 85




NCC Satellite Simultaneous Nadir Overpasses (SNOs) Prediction Service
